Princeton, MN

12:35 PM CST on November 18, 2019 (GMT -0600)
Princeton Municipal

Weather History for KPNM - September, 2019

Change the Weather History Date:

Sunday, September 8, 2019

  Actual Average Record
Temperature  
Mean Temperature 58 °F -  
Max Temperature 64 °F 73 °F 91 °F (2003)
Min Temperature 51 °F 50 °F 37 °F (1998)
Degree Days  
Heating Degree Days 8    
Growing Degree Days 8 (Base 50)    
Moisture  
Dew Point 51 °F    
Average Humidity 83    
Maximum Humidity 94    
Minimum Humidity 68    
Precipitation  
Precipitation 0.00 in - - ()
Sea Level Pressure  
Sea Level Pressure 30.14 in    
Wind  
Wind Speed 5 mph (ENE)    
Max Wind Speed 10 mph    
Max Gust Speed -    
Visibility 10 miles    
Events Rain    
Averages and records for this station are not official NWS values.
T = Trace of Precipitation, MM = Missing Value Source: NWS Daily Summary

Daily Weather History Graph

Daily Weather History Graph

Search for Another Location

Airport or City:

Astronomy

Sep. 08, 2019 Rise Set
Actual Time 6:44 AM CDT 7:39 PM CDT
Civil Twilight 6:13 AM CDT 8:09 PM CDT
Nautical Twilight 5:37 AM CDT 8:45 PM CDT
Astronomical Twilight 4:59 AM CDT 9:23 PM CDT
Moon 5:03 PM CDT (9/8) 1:09 AM CDT (9/8)
Length of Visible Light 13h 55m
Length of Day
12h 55m
Waxing Gibbous, 75% of the Moon is Illuminated
Sep 8
Waxing Gibbous
Sep 13
Full
Sep 21
Last Quarter
Sep 28
New
Oct 5
First Quarter

Hourly Weather History & Observations

Time (CDT) Temp. Dew Point Humidity Pressure Visibility Wind Dir Wind Speed Gust Speed Precip Events Conditions
12:15 AM 53.6 °F 51.8 °F 94% 30.14 in 10.0 mi NNE 4.6 mph - N/A   Overcast
12:35 AM 53.6 °F 51.8 °F 94% 30.13 in 10.0 mi NNE 4.6 mph - N/A Rain Rain
12:40 AM 53.6 °F 51.8 °F 94% 30.13 in 10.0 mi NE 5.8 mph - N/A Rain Light Rain
12:58 AM 53.6 °F 51.8 °F 94% 30.13 in 10.0 mi NE 4.6 mph - N/A   Overcast
1:16 AM 53.6 °F 51.8 °F 94% 30.13 in 10.0 mi NE 3.5 mph - N/A Rain Light Rain
1:35 AM 53.6 °F 51.8 °F 94% 30.12 in 10.0 mi NE 3.5 mph - N/A   Overcast
1:55 AM 53.6 °F 51.8 °F 94% 30.13 in 10.0 mi NE 3.5 mph - N/A   Overcast
2:19 AM 53.6 °F 51.8 °F 94% 30.15 in 10.0 mi ENE 3.5 mph - N/A Rain Light Rain
2:37 AM 53.6 °F 50.0 °F 88% 30.15 in 10.0 mi NE 3.5 mph - N/A Rain Light Rain
2:55 AM 53.6 °F 50.0 °F 88% 30.15 in 10.0 mi Calm Calm - N/A   Light Drizzle
2:56 AM 53.6 °F 50.0 °F 88% 30.15 in 10.0 mi Calm Calm - N/A   Light Drizzle
3:15 AM 53.6 °F 50.0 °F 88% 30.14 in 10.0 mi NE 3.5 mph - N/A   Light Drizzle
3:16 AM 53.6 °F 50.0 °F 88% 30.14 in 10.0 mi NE 4.6 mph - N/A   Light Drizzle
3:35 AM 53.6 °F 50.0 °F 88% 30.14 in 10.0 mi NE 3.5 mph - N/A Rain Light Rain
3:58 AM 53.6 °F 48.2 °F 82% 30.13 in 10.0 mi NE 3.5 mph - N/A Rain Light Rain
4:16 AM 51.8 °F 50.0 °F 94% 30.13 in 10.0 mi NE 4.6 mph - N/A   Mostly Cloudy
4:35 AM 51.8 °F 48.2 °F 88% 30.13 in 10.0 mi NE 4.6 mph - N/A Rain Light Rain
4:36 AM 51.8 °F 48.2 °F 88% 30.13 in 10.0 mi NE 3.5 mph - N/A Rain Light Rain
4:55 AM 51.8 °F 48.2 °F 88% 30.13 in 10.0 mi NE 3.5 mph - N/A Rain Light Rain
4:56 AM 51.8 °F 48.2 °F 88% 30.13 in 10.0 mi NE 4.6 mph - N/A Rain Light Rain
5:19 AM 51.8 °F 48.2 °F 88% 30.12 in 10.0 mi NE 5.8 mph - N/A   Overcast
5:37 AM 51.8 °F 48.2 °F 88% 30.13 in 10.0 mi NE 5.8 mph - N/A   Overcast
6:15 AM 51.8 °F 48.2 °F 88% 30.15 in 10.0 mi NE 3.5 mph - N/A   Overcast
6:16 AM 51.8 °F 48.2 °F 88% 30.15 in 10.0 mi NE 3.5 mph - N/A   Overcast
6:35 AM 51.8 °F 48.2 °F 88% 30.15 in 10.0 mi NE 6.9 mph - N/A   Overcast
6:40 AM 51.8 °F 48.2 °F 88% 30.15 in 10.0 mi NE 5.8 mph - N/A   Overcast
6:58 AM 51.8 °F 48.2 °F 88% 30.15 in 10.0 mi NE 4.6 mph - N/A   Overcast
7:16 AM 51.8 °F 48.2 °F 88% 30.15 in 10.0 mi NE 5.8 mph - N/A   Mostly Cloudy
7:35 AM 51.8 °F 48.2 °F 88% 30.15 in 10.0 mi ENE 5.8 mph - N/A   Mostly Cloudy
7:36 AM 51.8 °F 48.2 °F 88% 30.15 in 10.0 mi ENE 4.6 mph - N/A   Mostly Cloudy
7:55 AM 51.8 °F 48.2 °F 88% 30.16 in 10.0 mi NE 3.5 mph - N/A   Mostly Cloudy
7:56 AM 51.8 °F 48.2 °F 88% 30.16 in 10.0 mi NE 4.6 mph - N/A   Mostly Cloudy
8:19 AM 51.8 °F 48.2 °F 88% 30.16 in 10.0 mi ENE 8.1 mph - N/A   Overcast
8:37 AM 53.6 °F 48.2 °F 82% 30.16 in 10.0 mi ENE 5.8 mph - N/A   Mostly Cloudy
8:55 AM 53.6 °F 48.2 °F 82% 30.16 in 10.0 mi East 5.8 mph - N/A   Scattered Clouds
9:15 AM 53.6 °F 50.0 °F 88% 30.16 in 10.0 mi East 3.5 mph - N/A   Mostly Cloudy
9:35 AM 53.6 °F 48.2 °F 82% 30.16 in 10.0 mi ENE 6.9 mph - N/A   Overcast
9:40 AM 53.6 °F 48.2 °F 82% 30.16 in 10.0 mi East 5.8 mph - N/A   Mostly Cloudy
9:58 AM 53.6 °F 50.0 °F 88% 30.16 in 10.0 mi ENE 5.8 mph - N/A Rain Light Rain
10:16 AM 53.6 °F 48.2 °F 82% 30.16 in 10.0 mi East 5.8 mph - N/A   Scattered Clouds
10:35 AM 55.4 °F 50.0 °F 82% 30.16 in 10.0 mi ENE 8.1 mph - N/A   Scattered Clouds
10:55 AM 55.4 °F 50.0 °F 82% 30.16 in 10.0 mi East 8.1 mph - N/A   Scattered Clouds
10:56 AM 55.4 °F 50.0 °F 82% 30.16 in 10.0 mi East 9.2 mph - N/A   Scattered Clouds
11:18 AM 55.4 °F 50.0 °F 82% 30.16 in 10.0 mi East 9.2 mph - N/A   Scattered Clouds
11:37 AM 55.4 °F 50.0 °F 82% 30.16 in 10.0 mi ENE 5.8 mph - N/A   Mostly Cloudy
11:55 AM 55.4 °F 51.8 °F 88% 30.16 in 10.0 mi East 5.8 mph - N/A   Scattered Clouds
12:15 PM 57.2 °F 51.8 °F 82% 30.16 in 10.0 mi ENE 8.1 mph - N/A   Scattered Clouds
12:35 PM 57.2 °F 51.8 °F 82% 30.16 in 10.0 mi East 4.6 mph - N/A   Mostly Cloudy
12:39 PM 57.2 °F 51.8 °F 82% 30.16 in 10.0 mi East 6.9 mph - N/A   Overcast
12:58 PM 57.2 °F 51.8 °F 82% 30.16 in 10.0 mi ENE 6.9 mph - N/A   Overcast
1:16 PM 57.2 °F 51.8 °F 82% 30.16 in 10.0 mi East 4.6 mph - N/A   Overcast
1:35 PM 59.0 °F 51.8 °F 77% 30.16 in 10.0 mi East 6.9 mph - N/A   Overcast
1:55 PM 60.8 °F 51.8 °F 72% 30.15 in 10.0 mi ENE 10.4 mph - N/A   Mostly Cloudy
2:19 PM 60.8 °F 51.8 °F 72% 30.15 in 10.0 mi East 9.2 mph - N/A   Mostly Cloudy
2:37 PM 60.8 °F 51.8 °F 72% 30.15 in 10.0 mi ENE 8.1 mph - N/A   Mostly Cloudy
2:55 PM 60.8 °F 53.6 °F 77% 30.14 in 10.0 mi East 4.6 mph - N/A   Mostly Cloudy
2:56 PM 60.8 °F 53.6 °F 77% 30.14 in 10.0 mi East 4.6 mph - N/A   Mostly Cloudy
3:15 PM 62.6 °F 53.6 °F 72% 30.14 in 10.0 mi East 8.1 mph - N/A   Mostly Cloudy
3:16 PM 62.6 °F 53.6 °F 72% 30.14 in 10.0 mi East 8.1 mph - N/A   Mostly Cloudy
3:35 PM 64.4 °F 53.6 °F 68% 30.13 in 10.0 mi ESE 8.1 mph - N/A   Mostly Cloudy
3:58 PM 62.6 °F 53.6 °F 72% 30.13 in 10.0 mi East 6.9 mph - N/A   Mostly Cloudy
4:16 PM 62.6 °F 51.8 °F 68% 30.13 in 10.0 mi East 6.9 mph - N/A   Mostly Cloudy
4:35 PM 62.6 °F 53.6 °F 72% 30.13 in 10.0 mi ENE 8.1 mph - N/A   Overcast
4:36 PM 62.6 °F 53.6 °F 72% 30.13 in 10.0 mi ENE 6.9 mph - N/A   Overcast
4:55 PM 62.6 °F 53.6 °F 72% 30.13 in 10.0 mi ENE 4.6 mph - N/A   Overcast
5:19 PM 60.8 °F 53.6 °F 77% 30.13 in 10.0 mi ENE 5.8 mph - N/A   Overcast
5:37 PM 60.8 °F 53.6 °F 77% 30.13 in 10.0 mi ENE 5.8 mph - N/A   Overcast
5:55 PM 60.8 °F 53.6 °F 77% 30.13 in 10.0 mi ENE 6.9 mph - N/A   Overcast
5:56 PM 60.8 °F 53.6 °F 77% 30.13 in 10.0 mi ENE 8.1 mph - N/A   Overcast
6:15 PM 60.8 °F 53.6 °F 77% 30.13 in 10.0 mi ENE 5.8 mph - N/A   Overcast
6:16 PM 60.8 °F 53.6 °F 77% 30.14 in 10.0 mi ENE 6.9 mph - N/A   Overcast
6:35 PM 60.8 °F 53.6 °F 77% 30.14 in 10.0 mi ENE 5.8 mph - N/A   Overcast
6:58 PM 60.8 °F 53.6 °F 77% 30.14 in 10.0 mi Calm Calm - N/A   Overcast
7:16 PM 60.8 °F 53.6 °F 77% 30.13 in 10.0 mi ENE 4.6 mph - N/A   Overcast
7:35 PM 59.0 °F 53.6 °F 82% 30.13 in 10.0 mi East 3.5 mph - N/A   Overcast
7:36 PM 59.0 °F 53.6 °F 82% 30.13 in 10.0 mi East 3.5 mph - N/A   Overcast
7:55 PM 59.0 °F 53.6 °F 82% 30.13 in 10.0 mi East 3.5 mph - N/A   Overcast
8:19 PM 59.0 °F 53.6 °F 82% 30.13 in 10.0 mi East 4.6 mph - N/A   Overcast
8:37 PM 59.0 °F 53.6 °F 82% 30.13 in 10.0 mi East 5.8 mph - N/A   Overcast
8:55 PM 59.0 °F 53.6 °F 82% 30.14 in 10.0 mi East 4.6 mph - N/A   Overcast
8:56 PM 59.0 °F 53.6 °F 82% 30.14 in 10.0 mi East 4.6 mph - N/A   Overcast
9:15 PM 59.0 °F 53.6 °F 82% 30.14 in 10.0 mi East 4.6 mph - N/A   Overcast
9:35 PM 59.0 °F 53.6 °F 82% 30.14 in 10.0 mi East 4.6 mph - N/A   Overcast
9:58 PM 59.0 °F 53.6 °F 82% 30.13 in 10.0 mi East 4.6 mph - N/A   Overcast
10:16 PM 57.2 °F 53.6 °F 88% 30.13 in 10.0 mi East 5.8 mph - N/A   Overcast
10:35 PM 57.2 °F 53.6 °F 88% 30.14 in 10.0 mi East 3.5 mph - N/A   Overcast
10:55 PM 57.2 °F 53.6 °F 88% 30.14 in 10.0 mi East 5.8 mph - N/A   Overcast
11:19 PM 57.2 °F 53.6 °F 88% 30.14 in 10.0 mi East 4.6 mph - N/A   Overcast
11:37 PM 57.2 °F 53.6 °F 88% 30.15 in 10.0 mi ESE 4.6 mph - N/A   Overcast
11:55 PM 57.2 °F 53.6 °F 88% 30.15 in 10.0 mi East 3.5 mph - N/A   Overcast